Location: Branche des Alpilles
(43.6087°N, 4.6976°E)
Time: 17:13:54
(UTC+00:00)

Envisat - Pass Details

Date: 02 October 2021
Orbit: 764 x 766 km, 98.2° (Epoch: 18 October)

Event Time Altitude Azimuth Distance (km) Brightness Sun altitude
Rises 04:36:36 0° 16° (NNE) 3,240 6.6 -12.3°
Reaches altitude 10° 04:38:57 10° 20° (NNE) 2,310 5.8 -11.9°
Maximum altitude 04:43:59 60° 101° (E) 871 3.6 -10.9°
Drops below altitude 10° 04:48:59 10° 181° (S) 2,293 5.4 -10.0°
Sets 04:51:18 0° 185° (S) 3,214 6.1 -9.6°
